Location: Asheville, NC
(35.6000°N, 82.5500°W)
Time: 10:50:59

XW-2B - Visible Passes

Search period start: 23 March 2018 00:00
Search period end: 02 April 2018 00:00
Orbit: 511 x 530 km, 97.5° (Epoch: 23 March)

Date Brightness Start Highest point End Pass type
(mag) Time Alt. Az. Time Alt. Az. Time Alt. Az.
24 Mar ? 06:52:38 10° NE 06:55:45 23° E 06:58:51 10° SSE visible
25 Mar ? 06:39:53 10° NE 06:42:19 16° E 06:44:43 10° SE visible
26 Mar ? 06:27:54 10° ENE 06:28:50 11° E 06:29:46 10° ESE visible
01 Apr ? 06:40:23 10° NE 06:42:50 16° E 06:45:17 10° SE visible
